Content
SEND FEEDBACK

Daily
Averages
Monthly
Summary
United States of America

RALEIGH - LAKE RALEIGH, NORTH CAROLINA


Home > North America > United States > North Carolina
Elevation: 9 meters     Latitude: 35 45N     Longitude: 078 41W

WEATHER
 
SELECT A DAY
Number of Records: 196,751;   Date Range: 1/1/95 - 11/24/14
 
SHARE

PRINT THIS DATA

[ ← Previous Day ]
WEATHER ALMANAC - 3 FEBRUARY, 2013
[ Next Day → ]
[ °F ]   °C
Weather ElementAverageHighLow
Temperature5.4 °C8.9 °C (1:51 pm)2 °C (4:51 am)
Dewpoint-2.7 °C2 °C (1:12 am)-6.1 °C (11:51 pm)
Humidity58.8 %87 % (4:51 am)40 % (6:51 pm)
Barometer1013.9 hPa1015.6 hPa (1:12 am)1011.2 hPa (2:51 pm)
Wind Speed8.4 km/h22.2 km/h (2:51 pm)
Wind Gust31.5 km/h (2:51 pm)
Weather ElementAverage
Visibility16.1 km
Wind DirectionSSW (202.5 °)

Weather ElementTotal
Precipitation---
Heating Degree Days12.9 (Base 18.3)
Averaged from 24 records on 3 February, 2013
WEATHER CONDITIONS BREAKOUT
WIND DIRECTION BREAKOUT
WEATHER BY HOUR - 3 FEBRUARY, 2013
[ °F ]   °C
Local TimeTemperatureDewpointHumidityBarometerVisibilityWind DirectionWind SpeedGust SpeedPrecipitationEventsConditions
1:12 AM6 °C2 °C76 %1015.6 hPa16.1 kmWest (270°)7.4 km/hMostly Cloudy
1:51 AM5 °C0 °C70 %1015.2 hPa16.1 kmWNW (290°)9.3 km/hMostly Cloudy
2:51 AM4.4 °C0 °C73 %1015.2 hPa16.1 kmCalmScattered Clouds
3:51 AM2.8 °C-0.6 °C79 %1014.2 hPa16.1 kmCalmPartly Cloudy
4:51 AM2 °C0 °C87 %1013.5 hPa16.1 kmCalmMostly Cloudy
5:51 AM2.2 °C0 °C86 %1013.9 hPa16.1 kmCalmMostly Cloudy
6:51 AM2.8 °C0.6 °C86 %1013.5 hPa16.1 kmCalmOvercast
7:51 AM2.8 °C0.6 °C86 %1014.2 hPa16.1 kmWest (260°)5.6 km/hMostly Cloudy
8:51 AM4 °C1 °C81 %1014.2 hPa16.1 kmWSW (250°)7.4 km/hScattered Clouds
9:51 AM6.1 °C-2.2 °C56 %1014.6 hPa16.1 kmWNW (290°)13 km/h25.9 km/hScattered Clouds
10:51 AM6.7 °C-4.4 °C45 %1014.6 hPa16.1 kmWNW (290°)11.1 km/hMostly Cloudy
11:51 AM6.7 °C-4.4 °C45 %1013.5 hPa16.1 kmWNW (300°)13 km/hMostly Cloudy
12:51 PM7.2 °C-4.4 °C44 %1012.9 hPa16.1 kmWest (270°)16.7 km/h29.6 km/hMostly Cloudy
1:51 PM8.9 °C-3.9 °C41 %1011.5 hPa16.1 kmWNW (300°)11.1 km/h29.6 km/hMostly Cloudy
2:51 PM8 °C-4 °C43 %1011.2 hPa16.1 kmWSW (240°)22.2 km/h31.5 km/hMostly Cloudy
3:51 PM8.3 °C-3.9 °C42 %1011.5 hPa16.1 kmWSW (250°)11.1 km/hOvercast
4:51 PM8.3 °C-3.9 °C42 %1011.5 hPa16.1 kmWest (280°)13 km/hMostly Cloudy
5:51 PM7.8 °C-3.3 °C46 %1012.5 hPa16.1 kmNW (310°)7.4 km/hMostly Cloudy
6:51 PM7.2 °C-5.6 °C40 %1013.5 hPa16.1 kmNW (310°)9.3 km/hScattered Clouds
7:51 PM6.1 °C-5.6 °C43 %1014.2 hPa16.1 kmNW (320°)9.3 km/hScattered Clouds
8:51 PM5 °C-5.6 °C47 %1014.6 hPa16.1 kmNW (320°)11.1 km/hScattered Clouds
9:51 PM4.4 °C-5.6 °C49 %1014.9 hPa16.1 kmVariable9.3 km/hClear
10:51 PM3.3 °C-5.6 °C53 %1015.6 hPa16.1 kmCalmPartly Cloudy
11:51 PM3.3 °C-6.1 °C51 %1015.6 hPa16.1 kmNW (310°)13 km/hPartly Cloudy
Hourly data recorded from KRDU, located 0 kilometers away from Raleigh - Lake Raleigh, North Carolina







STORIES FROM OUR PARTNERS